sat.trackr.live / text

‹ back to catalog

STARLINK-31981

NORAD 60035 · 2024-111V

PAYLOAD ACTIVE UNKNOWN

§ Identity

Operator
Country
US
Launch date
2024-06-08
Launch site
AFETR
Launch vehicle
Mass (kg)
RCS (m²)

Purposes: comms

External: N2YO · Heavens-Above · Gunter

§ Orbital elements

Epoch: 2026-09-21T10:56:46.386816Z

Period
93.85 min
Inclination
53.1587°
Eccentricity
0.0001340
Mean motion
15.34376282 rev/d
Perigee alt
461.9 km
Apogee alt
463.7 km
Semi-major
6,840.9 km
B*
-3.4230e-5
RAAN
245.0719°
Arg perigee
102.5681°
Mean anomaly
257.5471°
Rev number
12,895

§ Raw data

STARLINK-319811 60035U 24111V   26264.45609244 -.00001532  00000+0 -34230-4 0  99952 60035  53.1587 245.0719 0001340 102.5681 257.5471 15.34376282128951

JSON: /api/v1/satellites/60035 · /tle

For live sub-satellite position, see the globe view (requires WebGL).

§ Visibility from observer

Set your observer location to see the next 7 days of passes ≥ 10°. The values pass through the URL so the page stays shareable.

No JS? Fill the form by hand. The geolocation button needs JavaScript.